Track ORBCOMM FM 111 now! 10-day predictions ORBCOMM FM 111 is classified as:
1 40089U 14040D 21027.21880083 .00000019 00000-0 31350-4 0 9998 2 40089 47.0079 322.2255 0035229 154.1770 206.0890 14.77354316352924